This is the latest recevied weather packets stored in our database for station/object KK7KHO. If no packets are shown the sender has not sent any weather packets the latest 10 day(s).
| Time | Temp. | Humidity | Pressure | Rain* | Wind** | Luminosity | Snow |
|---|---|---|---|---|---|---|---|
| 1777755338 | 21.11° C | 71% | 1014.8 hPa | 0 mm | - | 651 W/m² | - |
| 1777755036 | 21.11° C | 70% | 1015 hPa | 0 mm | - | 653 W/m² | - |
| 1777754732 | 21.11° C | 70% | 1015.1 hPa | 0 mm | - | 657 W/m² | - |
| 1777754431 | 20.56° C | 71% | 1015 hPa | 0 mm | - | 660 W/m² | - |
| 1777754127 | 20.56° C | 71% | 1014.9 hPa | 0 mm | - | 662 W/m² | - |
| 1777753824 | 20.56° C | 71% | 1014.9 hPa | 0 mm | - | 663 W/m² | - |
| 1777753520 | 20.56° C | 70% | 1015.2 hPa | 0 mm | - | 664 W/m² | - |
| 1777753219 | 19.44° C | 72% | 1015.1 hPa | 0 mm | - | 666 W/m² | - |
| 1777752914 | 20° C | 71% | 1015.3 hPa | 0 mm | - | 666 W/m² | - |
| 1777752611 | 20° C | 70% | 1015.4 hPa | 0 mm | - | 666 W/m² | - |
| 1777752307 | 20° C | 70% | 1015.4 hPa | 0 mm | - | 666 W/m² | - |
| 1777752005 | 20° C | 70% | 1015.5 hPa | 0 mm | - | 665 W/m² | - |
| 1777751702 | 20° C | 71% | 1015.5 hPa | 0 mm | - | 665 W/m² | - |
| 1777751397 | 20° C | 73% | 1015.7 hPa | 0 mm | - | 663 W/m² | - |
| 1777751095 | 19.44° C | 74% | 1016 hPa | 0 mm | - | 662 W/m² | - |
| 1777750790 | 20° C | 72% | 1015.8 hPa | 0 mm | - | 661 W/m² | - |
| 1777750488 | 19.44° C | 73% | 1015.8 hPa | 0 mm | - | 659 W/m² | - |
| 1777750183 | 19.44° C | 72% | 1015.9 hPa | 0 mm | - | 657 W/m² | - |
| 1777749880 | 18.89° C | 72% | 1016 hPa | 0 mm | - | 652 W/m² | - |
| 1777749577 | 19.44° C | 72% | 1015.8 hPa | 0 mm | - | 650 W/m² | - |
| 1777749275 | 18.33° C | 74% | 1015.9 hPa | 0 mm | - | 646 W/m² | - |
| 1777748972 | 18.33° C | 74% | 1016 hPa | 0 mm | - | 643 W/m² | - |
| 1777748669 | 18.33° C | 74% | 1016.1 hPa | 0 mm | - | 641 W/m² | - |
| 1777748366 | 18.33° C | 76% | 1016.3 hPa | 0 mm | - | 636 W/m² | - |
| 1777748062 | 18.33° C | 76% | 1016.3 hPa | 0 mm | - | 632 W/m² | - |
* Rain latest hour (hover to see other rain measurements)
** Current wind speed in m/s (hover to see current wind gust speed)